Weather History for KAUW - October, 2011

Change the Weather History Date:

Monday, October 24, 2011

  Actual Average Record
Temperature  
Mean Temperature 48 °F 43 °F  
Max Temperature 58 °F 52 °F 76 °F (1989)
Min Temperature 38 °F 34 °F 18 °F (1981)
Degree Days  
Heating Degree Days 17 22  
Month to date heating degree days 292 426  
Since 1 July heating degree days 567 719  
Cooling Degree Days 0 0  
Month to date cooling degree days 8 0  
Year to date cooling degree days 558 405  
Moisture  
Dew Point 36 °F    
Average Humidity 65    
Maximum Humidity 92    
Minimum Humidity 38    
Precipitation  
Precipitation 0.00 in 0.08 in 1.38 in (1959)
Month to date precipitation 1.59 2.41  
Year to date precipitation 32.44 28.52  
Snow  
Snow 0.00 in 0.10 in 4.80 in (1933)
Month to date snowfall 0.0 0.9  
Since 1 July snowfall 0.0 0.9  
Snow Depth 0.00 in    
Sea Level Pressure  
Sea Level Pressure 29.98 in    
Wind  
Wind Speed 7 mph (WNW)    
Max Wind Speed 21 mph    
Max Gust Speed 26 mph    
Visibility 10 miles    
Events      
T = Trace of Precipitation, MM = Missing Value Source: NWS Daily Summary

Daily Weather History Graph

Daily Weather History Graph

Search for Another Location

Airport or City:

Trip Planner

Search our weather history database for the weather conditions in past years. The results will help you decide how hot, cold, wet, or windy it might be!

Date:

Astronomy

Oct. 24, 2011 Rise Set
Actual Time 7:25 AM CDT 5:59 PM CDT
Civil Twilight 6:55 AM CDT 6:29 PM CDT
Nautical Twilight 6:21 AM CDT 7:03 PM CDT
Astronomical Twilight 5:47 AM CDT 7:37 PM CDT
Moon 4:39 AM CDT (10/24) 4:27 PM CDT (10/24)
Length of Visible Light 11h 33m
Length of Day
10h 33m
Waning Crescent, 7% of the Moon is Illuminated
Oct 24
Waning Crescent
Oct 26
New
Nov 2
First Quarter
Nov 10
Full
Nov 18
Last Quarter

Hourly Weather History & Observations

Time (CDT) Temp. Windchill Dew Point Humidity Pressure Visibility Wind Dir Wind Speed Gust Speed Precip Events Conditions
12:54 AM 41.0 °F 36.4 °F 37.9 °F 89% 29.88 in 10.0 mi WNW 6.9 mph - N/A   Clear
1:54 AM 39.9 °F 35.1 °F 37.0 °F 89% 29.88 in 10.0 mi WNW 6.9 mph - N/A   Clear
2:54 AM 39.0 °F 33.4 °F 37.0 °F 93% 29.88 in 10.0 mi WNW 8.1 mph - N/A   Clear
3:54 AM 39.0 °F 32.8 °F 37.0 °F 93% 29.89 in 10.0 mi WNW 9.2 mph - N/A   Clear
4:54 AM 39.0 °F 31.8 °F 36.0 °F 89% 29.90 in 10.0 mi WNW 11.5 mph - N/A   Clear
5:54 AM 37.9 °F 30.9 °F 35.1 °F 89% 29.92 in 10.0 mi WNW 10.4 mph - N/A   Clear
6:54 AM 37.9 °F 32.7 °F 35.1 °F 89% 29.94 in 10.0 mi NW 6.9 mph - N/A   Clear
7:54 AM 37.9 °F 32.1 °F 35.1 °F 89% 29.97 in 10.0 mi WNW 8.1 mph - N/A   Clear
8:54 AM 39.9 °F 33.9 °F 36.0 °F 86% 29.99 in 10.0 mi WNW 9.2 mph - N/A   Clear
9:54 AM 44.1 °F 39.0 °F 37.0 °F 76% 30.01 in 10.0 mi West 9.2 mph - N/A   Clear
10:54 AM 48.9 °F - 37.0 °F 64% 30.01 in 10.0 mi WNW 10.4 mph - N/A   Clear
11:54 AM 52.0 °F - 35.1 °F 53% 30.02 in 10.0 mi West 18.4 mph 23.0 mph N/A   Clear
1:54 PM 55.9 °F - 34.0 °F 44% 30.01 in 10.0 mi West 17.3 mph 21.9 mph N/A   Clear
2:54 PM 57.0 °F - 34.0 °F 42% 30.01 in 10.0 mi West 11.5 mph - N/A   Clear
3:54 PM 57.9 °F - 33.1 °F 39% 30.01 in 10.0 mi West 11.5 mph - N/A   Clear
4:54 PM 55.9 °F - 30.9 °F 39% 30.03 in 10.0 mi West 11.5 mph - N/A   Clear
5:54 PM 53.1 °F - 33.1 °F 47% 30.04 in 10.0 mi WSW 4.6 mph - N/A   Clear
7:54 PM 45.0 °F - 35.1 °F 68% 30.05 in 10.0 mi Calm Calm - N/A   Partly Cloudy
8:54 PM 46.0 °F - 37.0 °F 71% 30.06 in 10.0 mi Calm Calm - N/A   Overcast
9:54 PM 46.0 °F - 37.0 °F 71% 30.06 in 10.0 mi Calm Calm - N/A   Mostly Cloudy
11:54 PM 45.0 °F - 37.9 °F 76% 30.08 in 10.0 mi Calm Calm - N/A   Overcast